Flag for Germany Weather past 2 weeks in Bad Oldesloe, Schleswig-Holstein, Germany

Now
37 °F

Rain showers. Partly sunny.


Feels Like: 27 °F
Forecast: 37 / 42 °F
Wind: 20 mph from West

Location: Luebeck-Blankensee

Current Time: Mar 2, 2015 at 9:26:22 AM

Latest Report: Mar 2, 2015 at 8:50 AM


Visibility: 4 mi

Pressure: 29.33 "Hg

Humidity: 93%

Dew point: 36 °F

Location of Bad OldesloeLocation

Historic Weather in Bad Oldesloe — Graph

°F

Bad Oldesloe temperature yesterday

Maximum temperature yesterday: 48 °F (at 1:50 PM)
Minimum temperature yesterday: 36 °F (at 6:50 AM)
Average temperature yesterday: 41 °F

Past Weeks' High & Low Weather Summary

 TemperatureHumidityPressure
High48 °F (Feb 26, 3:20 PM)100% (Feb 17, 7:50 PM)30.69 "Hg (Feb 17, 7:50 PM)
Low28 °F (Feb 17, 6:50 AM)53% (Feb 19, 2:20 PM)29.24 "Hg (Feb 21, 11:20 AM)
Average39 °F82%29.91 "Hg
* Reported Feb 15 8:20 AM — Mar 2 8:20 AM, Bad Oldesloe, Weather by CustomWeather, © 2015

Note: Actual official high and low records may vary slightly from our data, if they occured in-between our weather recording intervals... More about our weather records

Advertising

Bad Oldesloe weather history for previous 24 hours

 ConditionsComfort  
Time TempWeatherWind HumidityBarometerVisibility
8:20 AM
Mon, Mar 2
37 °FBroken clouds.20 mph93%29.33 "HgN/A
7:50 AM37 °FLight rain. Partly sunny.17 mph93%29.30 "Hg4 mi
7:20 AM37 °FPartly sunny.17 mph93%29.30 "Hg5 mi
6:50 AM39 °FRain showers. Passing clouds.14 mph93%29.27 "Hg4 mi
9:50 PM
Sun, Mar 1
37 °FClear.6 mph93%29.47 "Hg10 mi
9:20 PM37 °FClear.8 mph93%29.47 "Hg10 mi
8:20 PM39 °FPassing clouds.8 mph87%29.50 "HgN/A
7:50 PM41 °FPassing clouds.9 mph87%29.50 "HgN/A
7:20 PM41 °FPassing clouds.12 mph87%29.50 "HgN/A
6:50 PM41 °FSprinkles. Passing clouds.17 mph87%29.50 "HgN/A
6:20 PM43 °FPassing clouds.9 mph81%29.47 "HgN/A
5:50 PM43 °FPartly sunny.10 mph81%29.47 "HgN/A
5:20 PM43 °FPartly sunny.10 mph87%29.47 "HgN/A
4:20 PM43 °FPartly sunny.10 mph81%29.47 "HgN/A
3:50 PM45 °FScattered showers. Partly sunny.13 mph76%29.47 "HgN/A
3:20 PM43 °FSprinkles. Broken clouds.13 mph87%29.47 "HgN/A
2:50 PM45 °FRain showers. Broken clouds.8 mph81%29.45 "HgN/A
2:20 PM45 °FRain showers. Partly sunny.13 mph81%29.45 "HgN/A
1:50 PM48 °FScattered clouds.10 mph82%29.45 "HgN/A
1:20 PM45 °FScattered clouds.12 mph93%29.45 "HgN/A
12:50 PM43 °FPartly sunny.12 mph93%29.45 "HgN/A
12:20 PM43 °FPartly sunny.12 mph93%29.45 "Hg6 mi
11:50 AM41 °FPartly sunny.12 mph93%29.45 "Hg6 mi
11:20 AM41 °FPartly sunny.12 mph93%29.45 "Hg4 mi
10:50 AM39 °FLight rain. Partly sunny.12 mph93%29.45 "Hg4 mi
10:20 AM39 °FLight rain. Partly sunny.13 mph93%29.45 "Hg4 mi
9:50 AM37 °FLight rain. Partly sunny.10 mph93%29.47 "Hg3 mi
9:20 AM37 °FLight rain. Partly sunny.12 mph93%29.47 "Hg3 mi
Weather by CustomWeather, © 2015

See weather overviewHow to use our weather pages